Wetterdaten: Woche 07.11.05 - 13.11.05 (KW45)
Datum Zeit Temperatur Luftfeuchte Luftdruck Niederschlag Windrichtung Wind
07.11.2005 00:00 6,4 C 100 % 1024 hPa 0,0 l/m N 0,0 km/h (0 Bft)
07.11.2005 01:00 6,4 C 100 % 1024 hPa 0,0 l/m N 0,0 km/h (0 Bft)
07.11.2005 02:00 6,4 C 100 % 1024 hPa 0,0 l/m S 1,0 km/h (0 Bft)
07.11.2005 03:00 6,5 C 100 % 1024 hPa 0,0 l/m S-SW 2,9 km/h (1 Bft)
07.11.2005 04:00 6,5 C 91 % 1024 hPa 0,0 l/m S-SW 11,1 km/h (2 Bft)
07.11.2005 05:00 6,4 C 88 % 1024 hPa 0,0 l/m W-SW 6,8 km/h (2 Bft)
07.11.2005 06:00 6,2 C 86 % 1025 hPa 0,0 l/m SW 8,2 km/h (2 Bft)
07.11.2005 07:00 5,9 C 84 % 1025 hPa 0,0 l/m W-SW 6,7 km/h (2 Bft)
07.11.2005 08:00 5,9 C 84 % 1026 hPa 0,0 l/m W-SW 10,0 km/h (2 Bft)
07.11.2005 09:00 6,1 C 83 % 1026 hPa 0,0 l/m S-SW 13,3 km/h (3 Bft)
07.11.2005 10:00 6,8 C 81 % 1026 hPa 0,0 l/m S-SW 13,9 km/h (3 Bft)
07.11.2005 11:00 8,1 C 76 % 1026 hPa 0,0 l/m S 19,1 km/h (3 Bft)
07.11.2005 12:00 9,4 C 71 % 1026 hPa 0,0 l/m S-SW 14,8 km/h (3 Bft)
07.11.2005 13:00 10,2 C 67 % 1026 hPa 0,0 l/m SW 10,7 km/h (2 Bft)
07.11.2005 14:00 9,8 C 71 % 1026 hPa 0,0 l/m S 11,2 km/h (2 Bft)
07.11.2005 15:00 9,5 C 71 % 1026 hPa 0,0 l/m S 12,4 km/h (3 Bft)
07.11.2005 16:00 8,7 C 72 % 1026 hPa 0,0 l/m S-SW 4,0 km/h (1 Bft)
07.11.2005 17:00 7,5 C 79 % 1026 hPa 0,0 l/m N 0,0 km/h (0 Bft)
07.11.2005 18:00 5,8 C 83 % 1027 hPa 0,0 l/m N 0,0 km/h (0 Bft)
07.11.2005 19:00 4,3 C 87 % 1027 hPa 0,0 l/m N 0,0 km/h (0 Bft)
07.11.2005 20:00 3,3 C 90 % 1027 hPa 0,0 l/m N 0,0 km/h (0 Bft)
07.11.2005 21:00 2,5 C 92 % 1028 hPa 0,0 l/m N 0,0 km/h (0 Bft)
07.11.2005 22:00 2,1 C 94 % 1028 hPa 0,0 l/m N 0,0 km/h (0 Bft)
07.11.2005 23:00 1,9 C 96 % 1028 hPa 0,0 l/m N 0,0 km/h (0 Bft)
08.11.2005 00:00 1,6 C 97 % 1028 hPa 0,0 l/m N 0,0 km/h (0 Bft)
08.11.2005 01:00 1,6 C 99 % 1027 hPa 0,0 l/m N 0,0 km/h (0 Bft)
08.11.2005 02:00 1,2 C 99 % 1027 hPa 0,0 l/m N 0,0 km/h (0 Bft)
08.11.2005 03:00 1,0 C 100 % 1027 hPa 0,0 l/m NW 3,2 km/h (1 Bft)
08.11.2005 04:00 1,3 C 100 % 1026 hPa 0,0 l/m NW 0,8 km/h (0 Bft)
08.11.2005 05:00 1,3 C 100 % 1026 hPa 0,0 l/m NW 5,8 km/h (2 Bft)
08.11.2005 06:00 1,4 C 100 % 1026 hPa 0,0 l/m W-NW 4,3 km/h (1 Bft)
08.11.2005 07:00 1,6 C 100 % 1027 hPa 0,0 l/m N 3,6 km/h (1 Bft)
08.11.2005 08:00 1,7 C 100 % 1027 hPa 0,0 l/m N 3,1 km/h (1 Bft)
08.11.2005 09:00 2,8 C 100 % 1027 hPa 0,0 l/m N-NW 3,9 km/h (1 Bft)
08.11.2005 10:00 4,8 C 100 % 1026 hPa 0,0 l/m N-NW 5,4 km/h (1 Bft)
08.11.2005 11:00 6,6 C 99 % 1026 hPa 0,0 l/m NW 8,2 km/h (2 Bft)
08.11.2005 12:00 8,9 C 82 % 1025 hPa 0,0 l/m N-NW 9,0 km/h (2 Bft)
08.11.2005 13:00 10,5 C 72 % 1025 hPa 0,0 l/m NW 6,0 km/h (2 Bft)
08.11.2005 14:00 10,6 C 71 % 1024 hPa 0,0 l/m N-NW 9,2 km/h (2 Bft)
08.11.2005 15:00 9,7 C 73 % 1024 hPa 0,0 l/m N-NW 7,1 km/h (2 Bft)
08.11.2005 16:00 7,6 C 81 % 1023 hPa 0,0 l/m NW 6,0 km/h (2 Bft)
08.11.2005 17:00 5,1 C 87 % 1023 hPa 0,0 l/m NW 5,5 km/h (1 Bft)
08.11.2005 18:00 3,9 C 91 % 1022 hPa 0,0 l/m NW 4,9 km/h (1 Bft)
08.11.2005 19:00 3,5 C 94 % 1022 hPa 0,0 l/m NW 3,3 km/h (1 Bft)
08.11.2005 20:00 3,3 C 96 % 1022 hPa 0,0 l/m W-NW 4,1 km/h (1 Bft)
08.11.2005 21:00 3,2 C 97 % 1021 hPa 0,0 l/m NW 6,4 km/h (2 Bft)
08.11.2005 22:00 3,4 C 99 % 1021 hPa 0,0 l/m N-NW 4,2 km/h (1 Bft)
08.11.2005 23:00 2,9 C 100 % 1021 hPa 0,0 l/m NW 1,9 km/h (1 Bft)
09.11.2005 00:00 2,5 C 100 % 1021 hPa 0,0 l/m W-NW 1,2 km/h (1 Bft)
09.11.2005 01:00 2,2 C 100 % 1021 hPa 0,0 l/m N 0,0 km/h (0 Bft)
09.11.2005 02:00 1,6 C 100 % 1021 hPa 0,0 l/m N 0,0 km/h (0 Bft)
09.11.2005 03:00 0,8 C 100 % 1021 hPa 0,0 l/m N 0,0 km/h (0 Bft)
09.11.2005 04:00 0,3 C 100 % 1021 hPa 0,0 l/m N 0,0 km/h (0 Bft)
09.11.2005 05:00 -0,1 C 100 % 1021 hPa 0,0 l/m S-SW 0,3 km/h (0 Bft)
09.11.2005 06:00 -0,2 C 100 % 1021 hPa 0,0 l/m N 0,0 km/h (0 Bft)
09.11.2005 07:00 -0,2 C 100 % 1022 hPa 0,0 l/m N 0,0 km/h (0 Bft)
09.11.2005 08:00 0,0 C 100 % 1022 hPa 0,0 l/m N 0,0 km/h (0 Bft)
09.11.2005 09:00 1,1 C 100 % 1023 hPa 0,0 l/m S 4,3 km/h (1 Bft)
09.11.2005 10:00 3,1 C 100 % 1023 hPa 0,0 l/m S 8,2 km/h (2 Bft)
09.11.2005 11:00 4,7 C 100 % 1023 hPa 0,0 l/m S 11,8 km/h (2 Bft)
09.11.2005 12:00 5,3 C 100 % 1023 hPa 0,0 l/m S-SO 11,0 km/h (2 Bft)
09.11.2005 13:00 6,9 C 98 % 1023 hPa 0,0 l/m SO 11,7 km/h (2 Bft)
09.11.2005 14:00 8,7 C 86 % 1023 hPa 0,0 l/m S 8,7 km/h (2 Bft)
09.11.2005 15:00 9,4 C 79 % 1023 hPa 0,0 l/m S 5,5 km/h (1 Bft)
09.11.2005 16:00 7,8 C 85 % 1024 hPa 0,0 l/m S 2,4 km/h (1 Bft)
09.11.2005 17:00 6,1 C 90 % 1024 hPa 0,0 l/m N 0,0 km/h (0 Bft)
09.11.2005 18:00 4,9 C 92 % 1025 hPa 0,0 l/m N 0,2 km/h (0 Bft)
09.11.2005 19:00 4,0 C 95 % 1026 hPa 0,0 l/m N 0,0 km/h (0 Bft)
09.11.2005 20:00 3,4 C 97 % 1026 hPa 0,0 l/m N 0,0 km/h (0 Bft)
09.11.2005 21:00 2,6 C 97 % 1027 hPa 0,0 l/m N 0,0 km/h (0 Bft)
09.11.2005 22:00 1,7 C 98 % 1028 hPa 0,0 l/m N 0,0 km/h (0 Bft)
09.11.2005 23:00 1,2 C 99 % 1028 hPa 0,0 l/m N 0,0 km/h (0 Bft)
10.11.2005 00:00 0,9 C 100 % 1029 hPa 0,0 l/m N 0,0 km/h (0 Bft)
10.11.2005 01:00 1,3 C 100 % 1029 hPa 0,0 l/m N 0,0 km/h (0 Bft)
10.11.2005 02:00 1,2 C 100 % 1029 hPa 0,0 l/m N 0,0 km/h (0 Bft)
10.11.2005 03:00 1,2 C 100 % 1030 hPa 0,0 l/m N 0,0 km/h (0 Bft)
10.11.2005 04:00 0,9 C 100 % 1030 hPa 0,0 l/m S-SO 1,2 km/h (1 Bft)
10.11.2005 05:00 1,7 C 100 % 1031 hPa 0,0 l/m S 7,5 km/h (2 Bft)
10.11.2005 06:00 2,8 C 100 % 1031 hPa 0,0 l/m S 9,8 km/h (2 Bft)
10.11.2005 07:00 3,3 C 100 % 1032 hPa 0,0 l/m S 2,7 km/h (1 Bft)
10.11.2005 08:00 3,5 C 100 % 1033 hPa 0,0 l/m S 2,4 km/h (1 Bft)
10.11.2005 09:00 4,5 C 100 % 1033 hPa 0,0 l/m S-SW 7,9 km/h (2 Bft)
10.11.2005 10:00 5,3 C 100 % 1034 hPa 0,0 l/m S-SW 10,2 km/h (2 Bft)
10.11.2005 11:00 6,2 C 100 % 1034 hPa 0,0 l/m S 10,1 km/h (2 Bft)
10.11.2005 12:00 6,8 C 100 % 1033 hPa 0,0 l/m S 9,2 km/h (2 Bft)
10.11.2005 13:00 7,2 C 100 % 1033 hPa 0,0 l/m S-SW 8,9 km/h (2 Bft)
10.11.2005 14:00 7,7 C 100 % 1033 hPa 0,0 l/m S 4,0 km/h (1 Bft)
10.11.2005 15:00 7,8 C 100 % 1033 hPa 0,0 l/m S-SW 2,0 km/h (1 Bft)
10.11.2005 16:00 7,5 C 100 % 1034 hPa 0,0 l/m W-SW 1,3 km/h (1 Bft)
10.11.2005 17:00 7,4 C 100 % 1034 hPa 0,0 l/m N 0,0 km/h (0 Bft)
10.11.2005 18:00 7,2 C 100 % 1035 hPa 0,0 l/m S 1,9 km/h (1 Bft)
10.11.2005 19:00 7,1 C 100 % 1035 hPa 0,0 l/m N 0,0 km/h (0 Bft)
10.11.2005 20:00 7,0 C 100 % 1035 hPa 0,0 l/m S-SO 0,9 km/h (0 Bft)
10.11.2005 21:00 7,0 C 100 % 1035 hPa 0,0 l/m S-SO 1,7 km/h (1 Bft)
10.11.2005 22:00 7,1 C 100 % 1035 hPa 0,0 l/m S 1,2 km/h (1 Bft)
10.11.2005 23:00 7,1 C 100 % 1034 hPa 0,0 l/m N 0,0 km/h (0 Bft)
11.11.2005 00:00 7,0 C 100 % 1034 hPa 0,0 l/m N 0,0 km/h (0 Bft)
11.11.2005 01:00 7,1 C 100 % 1034 hPa 0,0 l/m N 0,0 km/h (0 Bft)
11.11.2005 02:00 7,1 C 100 % 1034 hPa 0,0 l/m N 0,0 km/h (0 Bft)
11.11.2005 03:00 7,0 C 100 % 1033 hPa 0,0 l/m N 0,0 km/h (0 Bft)
11.11.2005 04:00 6,9 C 100 % 1033 hPa 0,0 l/m N 0,0 km/h (0 Bft)
11.11.2005 05:00 7,0 C 100 % 1032 hPa 0,0 l/m N 0,1 km/h (0 Bft)
11.11.2005 06:00 6,9 C 100 % 1032 hPa 0,0 l/m S 0,9 km/h (0 Bft)
11.11.2005 07:00 6,5 C 100 % 1032 hPa 0,0 l/m O 2,4 km/h (1 Bft)
11.11.2005 08:00 6,2 C 100 % 1032 hPa 0,0 l/m SO 4,0 km/h (1 Bft)
11.11.2005 09:00 6,4 C 100 % 1032 hPa 0,0 l/m N 0,0 km/h (0 Bft)
11.11.2005 10:00 6,6 C 100 % 1031 hPa 0,0 l/m N 0,5 km/h (0 Bft)
11.11.2005 11:00 6,7 C 100 % 1031 hPa 0,0 l/m NW 1,8 km/h (1 Bft)
11.11.2005 12:00 6,8 C 100 % 1030 hPa 0,0 l/m N 4,5 km/h (1 Bft)
11.11.2005 13:00 7,1 C 97 % 1030 hPa 0,0 l/m O-NO 8,8 km/h (2 Bft)
11.11.2005 14:00 6,9 C 95 % 1029 hPa 0,0 l/m W 0,8 km/h (0 Bft)
11.11.2005 15:00 7,2 C 94 % 1028 hPa 0,0 l/m W-SW 3,4 km/h (1 Bft)
11.11.2005 16:00 7,2 C 92 % 1028 hPa 0,0 l/m W 0,6 km/h (0 Bft)
11.11.2005 17:00 7,0 C 92 % 1027 hPa 0,0 l/m S-SW 0,9 km/h (0 Bft)
11.11.2005 18:00 6,8 C 94 % 1027 hPa 0,0 l/m N 0,0 km/h (0 Bft)
11.11.2005 19:00 5,6 C 94 % 1026 hPa 0,0 l/m N 0,0 km/h (0 Bft)
11.11.2005 20:00 4,1 C 95 % 1026 hPa 0,0 l/m N 0,0 km/h (0 Bft)
11.11.2005 21:00 3,7 C 96 % 1025 hPa 0,0 l/m N 0,0 km/h (0 Bft)
11.11.2005 22:00 3,1 C 98 % 1025 hPa 0,0 l/m N 0,0 km/h (0 Bft)
11.11.2005 23:00 1,8 C 99 % 1025 hPa 0,0 l/m N 0,0 km/h (0 Bft)
12.11.2005 00:00 1,6 C 100 % 1024 hPa 0,0 l/m N 0,0 km/h (0 Bft)
12.11.2005 01:00 2,2 C 100 % 1023 hPa 0,0 l/m N 0,3 km/h (0 Bft)
12.11.2005 02:00 3,0 C 100 % 1023 hPa 0,0 l/m O-NO 6,2 km/h (2 Bft)
12.11.2005 03:00 3,3 C 100 % 1023 hPa 0,0 l/m O 4,5 km/h (1 Bft)
12.11.2005 04:00 2,7 C 100 % 1022 hPa 0,0 l/m O 1,1 km/h (1 Bft)
12.11.2005 05:00 1,7 C 100 % 1022 hPa 0,0 l/m N 0,0 km/h (0 Bft)
12.11.2005 06:00 0,9 C 100 % 1021 hPa 0,0 l/m N 0,0 km/h (0 Bft)
12.11.2005 07:00 0,4 C 100 % 1021 hPa 0,0 l/m N 0,0 km/h (0 Bft)
12.11.2005 08:00 0,6 C 100 % 1021 hPa 0,0 l/m N 0,0 km/h (0 Bft)
12.11.2005 09:00 1,9 C 100 % 1021 hPa 0,0 l/m N 0,0 km/h (0 Bft)
12.11.2005 10:00 4,0 C 100 % 1021 hPa 0,0 l/m S 2,3 km/h (1 Bft)
12.11.2005 11:00 7,6 C 95 % 1020 hPa 0,0 l/m S-SO 1,8 km/h (1 Bft)
12.11.2005 12:00 12,0 C 64 % 1019 hPa 0,0 l/m S 7,6 km/h (2 Bft)
12.11.2005 13:00 14,4 C 53 % 1019 hPa 0,0 l/m S 6,6 km/h (2 Bft)
12.11.2005 14:00 15,2 C 50 % 1018 hPa 0,0 l/m SO 2,9 km/h (1 Bft)
12.11.2005 15:00 14,1 C 53 % 1017 hPa 0,0 l/m O 0,4 km/h (0 Bft)
12.11.2005 16:00 11,3 C 65 % 1017 hPa 0,0 l/m N 0,0 km/h (0 Bft)
12.11.2005 17:00 8,8 C 76 % 1017 hPa 0,0 l/m NW 7,5 km/h (2 Bft)
12.11.2005 18:00 7,8 C 84 % 1017 hPa 0,0 l/m W-NW 1,7 km/h (1 Bft)
12.11.2005 19:00 6,5 C 89 % 1018 hPa 0,0 l/m NW 7,6 km/h (2 Bft)
12.11.2005 20:00 6,1 C 94 % 1018 hPa 0,0 l/m NW 5,9 km/h (2 Bft)
12.11.2005 21:00 5,3 C 97 % 1018 hPa 0,0 l/m N-NO 5,1 km/h (1 Bft)
12.11.2005 22:00 5,0 C 100 % 1018 hPa 0,0 l/m N-NO 4,4 km/h (1 Bft)
12.11.2005 23:00 4,7 C 100 % 1018 hPa 0,0 l/m N 6,2 km/h (2 Bft)
13.11.2005 00:00 4,5 C 100 % 1018 hPa 0,0 l/m N-NW 8,3 km/h (2 Bft)
13.11.2005 01:00 4,4 C 100 % 1018 hPa 0,0 l/m N 9,6 km/h (2 Bft)
13.11.2005 02:00 4,4 C 100 % 1018 hPa 0,0 l/m N 6,3 km/h (2 Bft)
13.11.2005 03:00 4,2 C 100 % 1018 hPa 0,0 l/m N 7,1 km/h (2 Bft)
13.11.2005 04:00 4,0 C 100 % 1018 hPa 0,0 l/m N-NO 10,7 km/h (2 Bft)
13.11.2005 05:00 3,7 C 100 % 1018 hPa 0,0 l/m N-NO 7,1 km/h (2 Bft)
13.11.2005 06:00 3,5 C 100 % 1018 hPa 0,0 l/m N 7,8 km/h (2 Bft)
13.11.2005 07:00 3,2 C 100 % 1018 hPa 0,0 l/m N-NO 10,2 km/h (2 Bft)
13.11.2005 08:00 3,3 C 100 % 1019 hPa 0,0 l/m N-NO 7,0 km/h (2 Bft)
13.11.2005 09:00 3,4 C 100 % 1019 hPa 0,0 l/m N 10,4 km/h (2 Bft)
13.11.2005 10:00 3,6 C 100 % 1019 hPa 0,0 l/m N-NO 11,4 km/h (2 Bft)
13.11.2005 11:00 3,8 C 99 % 1020 hPa 0,0 l/m N-NO 11,5 km/h (2 Bft)
13.11.2005 12:00 4,0 C 94 % 1020 hPa 0,0 l/m N 10,4 km/h (2 Bft)
13.11.2005 13:00 4,2 C 90 % 1019 hPa 0,0 l/m N-NO 13,0 km/h (3 Bft)
13.11.2005 14:00 4,5 C 89 % 1019 hPa 0,0 l/m N-NO 11,7 km/h (2 Bft)
13.11.2005 15:00 4,3 C 91 % 1020 hPa 0,0 l/m N-NO 12,5 km/h (3 Bft)
13.11.2005 16:00 3,7 C 93 % 1020 hPa 0,0 l/m NO 13,9 km/h (3 Bft)
13.11.2005 17:00 3,1 C 96 % 1021 hPa 0,0 l/m N-NO 14,0 km/h (3 Bft)
13.11.2005 18:00 3,1 C 98 % 1021 hPa 0,0 l/m N-NO 14,8 km/h (3 Bft)
13.11.2005 19:00 3,0 C 97 % 1021 hPa 0,0 l/m N-NO 13,4 km/h (3 Bft)
13.11.2005 20:00 3,1 C 98 % 1022 hPa 0,0 l/m N-NO 12,2 km/h (2 Bft)
13.11.2005 21:00 3,1 C 98 % 1022 hPa 0,0 l/m NO 12,6 km/h (3 Bft)
13.11.2005 22:00 3,0 C 97 % 1022 hPa 0,0 l/m N-NO 14,0 km/h (3 Bft)
13.11.2005 23:00 2,8 C 95 % 1023 hPa 0,0 l/m NO 14,3 km/h (3 Bft)
Min-Datum _ 09.11.05 12.11.05 12.11.05 - - 07.11.05
_ Min-Zeit 06:49 14:33 15:01 - - 00:00
Minimum _ -0,4 C 48 % 1017 hPa - - 0,0 km/h (0 Bft)
Max-Datum _ 12.11.05 07.11.05 10.11.05 07.11.05 - 07.11.05
_ Max-Zeit 14:30 00:00 18:30 00:00 - 11:32
Maximum _ 15,4 C 100 % 1035 hPa 0,0 l/m - 29,7 km/h
S (5 Bft)
Durchschnitt _ 4,9 C 94 % 1025 hPa #0,0 l/m N 4,6 km/h (1 Bft)

Durchschnitt Minimum Temp.4,6 C
Durchschnitt Maximum Temp.5,2 C